Location: �bnet
(46.9957°N, 8.4908°E)
Time: 00:32:30
(UTC+00:00)

Gbstr 26 Del rocket - Pass Details

Date: 11 May 2021
Orbit: 493 x 1263 km, 51.8° (Epoch: 18 June)

Event Time Altitude Azimuth Distance (km) Brightness Sun altitude
Rises 22:10:22 0° 294° (WNW) 4,094 7.9 -22.9°
Reaches altitude 10° 22:13:21 10° 295° (WNW) 3,050 7.1 -23.0°
Maximum altitude 22:20:47 84° 23° (NNE) 1,016 4.0 -23.4°
Enters shadow 22:23:50 33° 111° (ESE) 1,514 4.7 -23.6°
